Location: Bukit Lungun
(2.6833°N, 113.9667°E)
Time: 14:55:48
(UTC+00:00)

USA 234 - Pass Details

Date: 02 March 2021
Orbit: 1102 x 1105 km, 123.0° (Epoch: 13 April)

Event Time Altitude Azimuth Distance (km) Brightness Sun altitude
Rises 21:31:18 0° 147° (SSE) 3,918 6.7 -16.4°
Reaches altitude 10° 21:33:47 10° 148° (SSE) 2,959 6.0 -15.8°
Maximum altitude 21:40:19 77° 234° (SW) 1,129 3.2 -14.2°
Drops below altitude 10° 21:46:50 10° 319° (NW) 2,950 5.1 -12.6°
Enters shadow 21:48:30 - 320° (NW) 3,596 5.5 -12.1°
